Regional Weather Roundup
Issued by NWS

Home | Current Version | Previous Version | Text Only | Print | Product List | Glossary On
Versions: 1 2 3 4 5 6 7 8 9 10 11 12 13 14 15 16 17 18 19 20 21 22 23 24 25 26 27 28 29 30 31 32 33 34 35 36 37 38 39 40 41 42 43 44 45 46 47 48 49 50
000
ASUS43 KLOT 300108
RWRIL

ILLINOIS REGIONAL WEATHER ROUNDUP
NATIONAL WEATHER SERVICE CHICAGO/ROMEOVILLE IL
800 PM CDT MON MAY 29 2017

NOTE: "FAIR" INDICATES FEW OR NO CLOUDS BELOW 12,000 FEET WITH NO
SIGNIFICANT WEATHER AND/OR OBSTRUCTIONS TO VISIBILITY.

* THESE STATIONS ARE NOT UNDER NWS QUALITY CONTROL. THEY ALSO MAY NOT
  REPORT WEATHER SUCH AS PRECIPITATION OR FOG.

ILZ001-002-007-009-015-016-024-300200-
NORTHWEST ILLINOIS

CITY           SKY/WX    TMP DP  RH WIND       PRES   REMARKS
MOLINE         CLEAR     71  42  35 W12       29.88R
STERLING*      PTCLDY    67  46  47 W9        29.88R
SAVANNA*       CLEAR     70  45  41 W8        29.87R
$$

ILZ003-004-008-010-011-017-018-300200-
NORTH CENTRAL ILLINOIS

CITY           SKY/WX    TMP DP  RH WIND       PRES   REMARKS
ROCKFORD       MOCLDY    67  46  47 W6        29.87R
FREEPORT*      MOCLDY    65  46  48 W6        29.88R
ROCHELLE*      CLEAR     67  47  48 W8        29.88R
DE KALB*       CLEAR     67  46  46 W8        29.88R
PERU*          PTCLDY    68  44  42 W9        29.89R
$$

ILZ005-006-012>014-019>023-300200-
NORTHEAST ILLINOIS

CITY           SKY/WX    TMP DP  RH WIND       PRES   REMARKS
CHICAGO-OHARE  PTCLDY    71  43  36 W12       29.85R
CHICAGO-MIDWAY PTCLDY    72  44  36 W8        29.86R
AURORA         PTCLDY    70  46  42 W10       29.87R
LANSING*       CLEAR     69  46  43 W7        29.87S
JOLIET*        PTCLDY    72  44  35 W5        29.88R
WAUKEGAN       CLEAR     67  44  43 VRB5      29.84R
DUPAGE AIRPORT PTCLDY    68  47  46 W9        29.86R
KANKAKEE*      CLEAR     73  42  32 W10       29.89R
WHEELING       CLEAR     69  45  41 W9        29.87R
MORRIS*        MOCLDY    70  44  38 CALM      29.87S
ROMEOVILLE*    MOCLDY    70  48  46 W8        29.87S
NORTHERLY ISL    N/A     71  39  31 W12         N/A
$$

LMZ740>746-300200-
SOUTHERN LAKE MICHIGAN

STATION/POSITION SKY/WX   TEMP    WIND        PRES    VSBY  WAVE
                          AIR SEA DIR/SP/G                  HT/PER
                          (F)     (DEG/KT/KT) (MB)    (MI)  (FT/S)
SOUTHERN BUOY              55 49  260/  8/  8 1010.3          2/ 4
WILMETTE HARBOR            63 54  270/  6/ 10   N/A           1/ 2
HARRISON CRIB              72     270/ 14/ 16   N/A
BURNHAM HARBOR             71     280/  5/ 15   N/A
CALUMET HARBOR             72     260/  3/  8 1010.7R
BURNS HARBOR               65     280/  9/ 12 1011.9R
MICHIGAN CITY              60     240/  4/  5   N/A
MICHIGAN CITY 6N           59 56  300/  6/  8   N/A           2/ 4
ST. JOSEPH                 60 60  250/  2/  4 1011.4R         2/ 4
$$

ILZ025>027-034>036-040-047-049-050-058-095>099-300200-
WEST-CENTRAL ILLINOIS

CITY           SKY/WX    TMP DP  RH WIND       PRES   REMARKS
QUINCY         CLEAR     72  46  39 W7        29.93R
GALESBURG*     CLEAR     71  40  33 W10G16    29.91R
MACOMB*        PTCLDY    72  40  31 W12       29.94R
JACKSONVILLE*  CLEAR     73  45  36 W7        29.93R
PITTSFIELD*    CLEAR     75  46  35 W3        29.94R
$$

ILZ028>032-037-038-041>044-048-051>054-059>061-300200-
CENTRAL ILLINOIS

CITY           SKY/WX    TMP DP  RH WIND       PRES   REMARKS
PONTIAC        CLEAR     72  44  36 W10       29.90S
BLOOMINGTON    CLEAR     71  41  33 NW12      29.92R
DECATUR        PTCLDY    74  45  35 W12G21    29.91R
PEORIA         PTCLDY    71  42  35 W5        29.91R
LACON*         MOCLDY    71  44  36 W6        29.89R
LINCOLN*       CLEAR     74  42  31 W3        29.92R
SPRINGFIELD    CLEAR     76  47  35 W12       29.92R
TAYLORVILLE    CLEAR     74  48  39 NW8       29.92S
$$

ILZ033-039-045-046-055>057-062-063-300200-
EAST-CENTRAL ILLINOIS

CITY           SKY/WX    TMP DP  RH WIND       PRES   REMARKS
CHAMPAIGN      PTCLDY    75  43  31 W15       29.90R
RANTOUL*       PTCLDY    75  47  36 W12       29.89R
MATTOON        CLOUDY    70  55  59 SW3       29.90F
PARIS*         CLOUDY    74  51  43 W7        29.90R
$$

ILZ079-100>102-300200-
SOUTHWEST ILLINOIS

CITY           SKY/WX    TMP DP  RH WIND       PRES   REMARKS
BELLEVILLE     CLEAR     70  62  75 W3        29.93R
CAHOKIA*       CLEAR     71  66  84 CALM      29.92R
SPARTA*        CLEAR     73  57  57 CALM      29.94R
$$

ILZ064>066-069>071-074>076-080>082-084>086-088>090-092>094-300200-
SOUTH-CENTRAL ILLINOIS

CITY           SKY/WX    TMP DP  RH WIND       PRES   REMARKS
CARBONDALE     CLOUDY    75  56  51 N10       29.93R
CAIRO*         CLOUDY    78  59  52 S7        29.94R
EFFINGHAM*     CLOUDY    66  60  80 CALM      29.94S
MARION         MOCLDY    79  57  47 N12G17    29.94R HX  80
MT. VERNON       N/A     63  61  93 CALM      29.94R
CENTRALIA*     PTCLDY    72  56  57 CALM      29.92F
SALEM*         CLOUDY    70  59  69 SW7       29.92F
METROPOLIS*    PTCLDY    77  59  55 S3        29.95R
$$

ILZ067-068-072-073-078-083-087-091-300200-
SOUTHEAST ILLINOIS

CITY           SKY/WX    TMP DP  RH WIND       PRES   REMARKS
LAWRENCEVILLE  CLOUDY    78  50  37 SW7       29.91R
FLORA*         RAIN      70  56  61 SW6       29.94R
FAIRFIELD*     RAIN      70  54  57 NW8       29.95R
HARRISBURG*    PTCLDY    78  56  47 S6        29.91S
ROBINSON*      CLOUDY    77  48  35 W14G20    29.91R
CARMI*         MOCLDY    76  54  44 S5        29.91R
$$

ABBREVIATIONS USED IN REMARKS
   TC - TEMPERATURE IN CELSIUS
  WCI - WIND CHILL INDEX
   HX - HEAT INDEX
  VSB - VISIBILITY
$$




USA.gov is the U.S. government's official web portal to all federal, state and local government web resources and services.